AirNav   Everest Fuels
 
 677 users online  

69G Richmond Field Airport
Gregory, Michigan, USA

GOING TO GREGORY?


FAA INFORMATION EFFECTIVE 31 DECEMBER 2020

Location

FAA Identifier: 69G
Lat/Long: 42-26-30.1260N 084-03-59.8270W
42-26.502100N 084-03.997117W
42.4417017,-84.0666186
(estimated)
Elevation: 921 ft. / 280.7 m (surveyed)
Variation: 05W (1985)
From city: 2 miles SE of GREGORY, MI
Time zone: UTC -5 (UTC -4 during Daylight Saving Time)
Zip code: 48137

Airport Operations

Airport use: Open to the public
Activation date: 11/1946
Control tower: no
ARTCC: CLEVELAND CENTER
FSS: LANSING FLIGHT SERVICE STATION
NOTAMs facility: LAN (NOTAM-D service available)
Attendance: APR-NOV WED IREG, APR-NOV SAT-SUN DAYLIGHT HOURS
Wind indicator: yes
Segmented circle: yes

Airport Communications

CTAF: 122.9
WX AWOS-3 at OZW (12 nm N): 118.875 (517-546-4450)
WX AWOS-3 at TEW (17 nm NW): 119.425 (517-676-5607)
WX ASOS at ARB (19 nm SE): PHONE 734-668-7173

Nearby radio navigation aids

VOR radial/distance  VOR name  Freq  Var
SVMr278/21.0SALEM VORTAC114.3003W
DXOr300/33.9DETROIT VOR/DME113.4006W
FNTr210/34.5FLINT VORTAC116.9006W
CRLr314/35.9CARLETON VOR/DME115.7003W
LFDr059/38.5LITCHFIELD VOR/DME111.2005W

 
NDB name  Hdg/Dist  Freq  Var  ID
TECUMSEH348/25.723906WTCU - -.-. ..-
ADRIAN007/34.327806WADG .- -.. --.

Airport Services

Parking: tiedowns
Airframe service: NONE
Powerplant service: NONE
Bottled oxygen: NONE
Bulk oxygen: NONE

Runway Information

Runway 18/36

Dimensions: 2471 x 100 ft. / 753 x 30 m
Surface: turf, in good condition
Runway edge markings: RWY 18 /36 AND DSPLCD THLD MARKED WITH 2 FT CONES.
RUNWAY 18  RUNWAY 36
Latitude: 42-26.728333N42-26.321667N
Longitude: 084-03.871667W084-03.851667W
Elevation: 921.0 ft.921.0 ft.
Traffic pattern: leftleft
Displaced threshold: 800 ft.
DSPLCD THLDS MKD WITH 2 FT CONES.
no
Runway end identifier lights: nono
Obstructions: 30 ft. pline, marked, 50 ft. from runway, 1:1 slope to clear
APCH RATIO 14:1 TO DSPLCD THLD, + 64' TREE 897' DSTC, 65 FT R.
52 ft. trees, 678 ft. from runway, 80 ft. right of centerline, 13:1 slope to clear

Airport Ownership and Management from official FAA records

Ownership: Privately-owned
Owner: SOUTHEAST MICH SOARING ASSOC. INC.
19935 DOYLE RD
GREGORY, MI 48137
Phone 734-498-2075
Manager: MICHAEL S. CAMPBELL
19935 DOYLE RD
GREGORY, MI 48137
Phone 734-498-2075
MSC@UMICH.EDU.

Airport Operational Statistics

Aircraft based on the field: 36
Single engine airplanes: 4
Gliders airplanes: 32
    
Aircraft operations: avg 128/week *
50% transient general aviation
50% local general aviation
* for 12-month period ending 31 December 2018

Additional Remarks

RWY NOT PLOWED WINTER.
GLIDERS ALSO USE THE TURF AREA WEST OF RWY 18/36, GLIDER FREQ 123.5.
EXTENSIVE GLIDER OPNS ON & INVOF ARPT.
FOR CD CTC DETROIT APCH AT 800-499-8181.
LRG BIRDS ON AND INVOF RWY.

Instrument Procedures

There are no published instrument procedures at 69G.

Some nearby airports with instrument procedures:

KOZW - Livingston County Spencer J Hardy Airport (12 nm N)
KTEW - Mason Jewett Field Airport (17 nm NW)
KARB - Ann Arbor Municipal Airport (19 nm SE)
Y47 - Oakland Southwest Airport (20 nm E)
KJXN - Jackson County Airport-Reynolds Field (21 nm SW)
 
Loc | Ops | Rwys | IFR | FBO | Links
Com | Nav | Svcs | Stats | Notes
Area around 69G (Richmond Field Airport)
 
Road maps at: MapQuest Bing Google
 
Aerial photo
WARNING: Photo may not be current or correct
Aerial photo of 69G (Richmond Field Airport)
Photo taken 06-Nov-2016

Do you have a better or more recent aerial photo of Richmond Field Airport that you would like to share? If so, please send us your photo.

 
Sectional chart

 
Airport distance calculator
Flying to Richmond Field Airport? Find the distance to fly.

From to 69G

Sunrise and sunset
Times for 25-Jan-2021
 Local
(UTC-5)
 Zulu
(UTC)
Morning civil twilight07:2712:27
Sunrise07:5812:58
Sunset17:4022:40
Evening civil twilight18:1023:10

Current date and time
Zulu (UTC)  25-Jan-2021 05:30:53
Local (UTC-5)  25-Jan-2021 00:30:53
 
METAR
KOZW 
11nm NE 
250515Z AUTO 00000KT 1SM BR BKN003 M09/M09 A3008 RMK AO2 T10861089
KTEW 
17nm NW 
250515Z AUTO 00000KT 1 1/2SM BR BKN033 M09/M10 A3008 RMK AO2 VIS 3/4V3 T10931098
KARB 
20nm SE 
734-668-7173
250453Z AUTO 00000KT 8SM OVC044 M03/M06 A3008 RMK AO2 SLP198 T10331061 410281106 $
KJXN 
21nm SW 
250456Z AUTO 00000KT 10SM CLR M06/M08 A3008 RMK AO2 SLP200 T10611083 410221061 $
TAF
KJXN 
21nm SW 
241740Z 2418/2518 09007KT 5SM -SN BR OVC020 FM241900 10009KT 6SM BR VCSH OVC035 FM250000 VRB03KT P6SM OVC030 FM251300 05004KT P6SM BKN050
NOTAMs
Click for the latest NOTAMs
NOTAMs are issued by the DoD/FAA and will open in a separate window not controlled by AirNav.

 

 
 

Would you like to see your business listed on this page?

 If your business provides an interesting product or service to pilots, flight crews, aircraft, or users of the Richmond Field Airport, you should consider listing it here.  To start the listing process, click on the button below
 
Add a business
 

Other Pages about Richmond Field Airport

Page from the Michigan Airport Directory (PDF)
 
Update a link
 
Copyright © AirNav, LLC. All rights reserved. Privacy Policy  Contact